Weather History for Lovelock, NV

Change the Weather History Date:

Wednesday, September 18, 2013

  Actual Average Record
Temperature  
Mean Temperature 54 °F -  
Max Temperature 72 °F 80 °F 97 °F (1952)
Min Temperature 37 °F 43 °F 22 °F (1954)
Degree Days  
Heating Degree Days 11    
Growing Degree Days 4 (Base 50)    
Moisture  
Dew Point 31 °F    
Average Humidity 43    
Maximum Humidity 82    
Minimum Humidity 17    
Precipitation  
Precipitation 0.00 in - - ()
Sea Level Pressure  
Sea Level Pressure 29.99 in    
Wind  
Wind Speed 6 mph (NE)    
Max Wind Speed 14 mph    
Max Gust Speed -    
Visibility 10 miles    
Events      
Averages and records for this station are not official NWS values.
T = Trace of Precipitation, MM = Missing Value Source: NWS Daily Summary

Daily Weather History Graph

Daily Weather History Graph

Search for Another Location

Airport:

Trip Planner

Search our weather history database for the weather conditions in past years. The results will help you decide how hot, cold, wet, or windy it might be!

Date:

Astronomy

Sep. 18, 2013 Rise Set
Actual Time 6:38 AM PDT 6:57 PM PDT
Civil Twilight 6:11 AM PDT 7:24 PM PDT
Nautical Twilight 5:39 AM PDT 7:56 PM PDT
Astronomical Twilight 5:06 AM PDT 8:28 PM PDT
Moon 6:23 PM PDT (9/18) 5:46 AM PDT (9/18)
Length of Visible Light 13h 13m
Length of Day
12h 19m
Waxing Gibbous, 99% of the Moon is Illuminated
Sep 18
Waxing Gibbous
Sep 19
Full
Sep 26
Last Quarter
Oct 4
New
Oct 11
First Quarter

Hourly Weather History & Observations

Time (PDT) Temp. Windchill Dew Point Humidity Pressure Visibility Wind Dir Wind Speed Gust Speed Precip Events Conditions
12:53 AM 54.0 °F - 37.9 °F 55% 29.89 in 10.0 mi NE 5.8 mph - N/A   Clear
1:53 AM 48.0 °F - 35.1 °F 61% 29.92 in 10.0 mi NE 10.4 mph - N/A   Clear
2:53 AM 48.9 °F - 37.0 °F 64% 29.92 in 10.0 mi North 4.6 mph - N/A   Clear
3:53 AM 45.0 °F 43.5 °F 36.0 °F 71% 29.94 in 10.0 mi ESE 3.5 mph - N/A   Clear
4:53 AM 39.9 °F - 33.1 °F 77% 29.96 in 10.0 mi Calm Calm - N/A   Clear
5:53 AM 39.9 °F - 32.0 °F 73% 29.99 in 10.0 mi Calm Calm - N/A   Clear
6:53 AM 37.0 °F 33.3 °F 32.0 °F 82% 30.02 in 10.0 mi East 4.6 mph - N/A   Clear
7:53 AM 50.0 °F - 37.9 °F 63% 30.04 in 10.0 mi NNE 9.2 mph - N/A   Clear
8:53 AM 54.0 °F - 39.0 °F 57% 30.04 in 10.0 mi NNE 9.2 mph - N/A   Clear
9:53 AM 57.9 °F - 37.9 °F 47% 30.05 in 10.0 mi NE 13.8 mph - N/A   Clear
10:53 AM 61.0 °F - 36.0 °F 39% 30.04 in 10.0 mi Variable 6.9 mph - N/A   Clear
11:53 AM 62.1 °F - 32.0 °F 32% 30.03 in 10.0 mi WSW 5.8 mph - N/A   Clear
12:53 PM 64.0 °F - 28.9 °F 27% 30.01 in 10.0 mi Variable 3.5 mph - N/A   Clear
1:53 PM 66.9 °F - 28.9 °F 24% 29.99 in 10.0 mi SW 6.9 mph - N/A   Clear
2:53 PM 69.1 °F - 26.1 °F 20% 29.98 in 10.0 mi Calm Calm - N/A   Clear
3:53 PM 71.1 °F - 26.1 °F 19% 29.96 in 10.0 mi NE 9.2 mph - N/A   Clear
4:53 PM 71.1 °F - 24.1 °F 17% 29.95 in 10.0 mi North - - N/A   Clear
5:53 PM 70.0 °F - 25.0 °F 18% 29.96 in 10.0 mi ESE 3.5 mph - N/A   Clear
6:53 PM 68.0 °F - 28.0 °F 22% 29.97 in 10.0 mi ENE 3.5 mph - N/A   Clear
7:53 PM 62.1 °F - 28.9 °F 29% 29.98 in 10.0 mi Calm Calm - N/A   Clear
8:53 PM 60.1 °F - 27.0 °F 28% 30.00 in 10.0 mi NE 12.7 mph - N/A   Clear
9:53 PM 55.9 °F - 25.0 °F 30% 30.00 in 10.0 mi NE 10.4 mph - N/A   Clear
10:53 PM 53.1 °F - 21.0 °F 29% 30.00 in 10.0 mi Variable 3.5 mph - N/A   Clear
11:53 PM 43.0 °F 41.3 °F 21.0 °F 42% 30.03 in 10.0 mi SE 3.5 mph - N/A   Clear